Flag for Costa Rica Weather past 2 weeks in Alajuela, Costa Rica

Now
66 °F

Clear.


Feels Like: 66 °F
Forecast: 64 / 80 °F
Wind: 8 mph from East

Location: Juan Santamaria

Current Time: Dec 21, 2014 at 12:28:12 AM

Latest Report: Dec 21, 2014 at 12:00 AM


Visibility: 10 mi

Pressure: 30.04 "Hg

Humidity: 73%

Dew point: 57 °F

Location of AlajuelaLocation

Historic Weather in Alajuela — Graph

°F

Alajuela temperature yesterday

Maximum temperature yesterday: 82 °F (at 11:00 AM)
Minimum temperature yesterday: 64 °F (at 5:00 AM)
Average temperature yesterday: 73 °F

Past Weeks' High & Low Weather Summary

 TemperatureHumidityPressure
High84 °F (Dec 17, 12:00 PM)88% (Dec 6, 9:00 AM)30.11 "Hg (Dec 6, 9:00 AM)
Low63 °F (Dec 10, 3:00 AM)35% (Dec 20, 12:00 PM)29.93 "Hg (Dec 7, 2:00 PM)
Average71 °F69%30.02 "Hg
* Reported Dec 5 11:00 PM — Dec 20 11:00 PM, Alajuela, Weather by CustomWeather, © 2014

Note: Actual official high and low records may vary slightly from our data, if they occured in-between our weather recording intervals... More about our weather records

Advertising

Alajuela weather history for previous 24 hours

 ConditionsComfort  
Time TempWeatherWind HumidityBarometerVisibility
11:00 PM
Dec 20
68 °FPassing clouds.12 mph69%30.06 "HgN/A
10:00 PM68 °FPassing clouds.10 mph69%30.05 "HgN/A
9:00 PM70 °FPassing clouds.12 mph64%30.05 "HgN/A
8:00 PM68 °FPassing clouds.15 mph73%30.03 "HgN/A
7:00 PM70 °FPassing clouds.13 mph64%30.01 "HgN/A
6:00 PM72 °FPassing clouds.16 mph61%29.98 "HgN/A
5:00 PM73 °FScattered clouds.17 mph57%29.96 "HgN/A
4:00 PM77 °FScattered clouds.12 mph54%29.94 "HgN/A
3:00 PM82 °FPassing clouds.17 mph40%29.94 "HgN/A
2:00 PM82 °FPassing clouds.14 mph37%29.96 "HgN/A
1:00 PM82 °FPassing clouds.14 mph35%29.98 "HgN/A
12:00 PM82 °FPassing clouds.16 mph35%30.01 "HgN/A
11:00 AM82 °FPassing clouds.15 mph37%30.03 "HgN/A
10:00 AM79 °FPassing clouds.14 mph45%30.05 "HgN/A
9:00 AM77 °FSunny.14 mph51%30.05 "Hg10 mi
8:00 AM73 °FSunny.13 mph61%30.04 "Hg10 mi
7:00 AM70 °FSunny.13 mph69%30.02 "Hg10 mi
6:00 AM68 °FSunny.7 mph73%29.99 "Hg10 mi
5:00 AM64 °FClear.3 mph78%29.97 "Hg10 mi
4:00 AM66 °FClear.6 mph78%29.96 "Hg10 mi
3:00 AM66 °FClear.7 mph78%29.96 "Hg10 mi
2:00 AM68 °FClear.5 mph73%29.96 "Hg10 mi
1:00 AM68 °FClear.8 mph78%29.97 "Hg10 mi
12:00 AM68 °FClear.8 mph78%30.00 "Hg10 mi
Weather by CustomWeather, © 2014

See weather overviewHow to use our weather pages